| time (UTC) | temp C | wind direction | speed KPH | gust KPH | rain 1hr cm | rain 24hr cm | rain mn cm | humidity % | barometer mb |
| 20260507231557 | -17 | 271 | 6.4 | 16.1 | 0.00 | 0.00 | 0.00 | 1010.0 | |
| 20260507230047 | -17 | 281 | 1.6 | 11.3 | 0.00 | 0.00 | 0.00 | 1009.8 | |
| 20260507224556 | -17 | 355 | 1.6 | 9.7 | 0.00 | 0.00 | 0.00 | 1009.7 | |
| 20260507223045 | -17 | 291 | 4.8 | 11.3 | 0.00 | 0.00 | 0.00 | 1009.6 | |
| 20260507221538 | -17 | 305 | 3.2 | 19.3 | 0.00 | 0.00 | 0.00 | 1009.5 | |
| 20260507220035 | -17 | 281 | 6.4 | 19.3 | 0.00 | 0.00 | 0.00 | 1009.3 | |
| 20260507214532 | -17 | 330 | 6.4 | 17.7 | 0.00 | 0.00 | 0.00 | 1009.1 | |
| 20260507213030 | -17 | 269 | 6.4 | 12.9 | 0.00 | 0.00 | 0.00 | 1009.0 | |
| 20260507211517 | -17 | 311 | 4.8 | 19.3 | 0.00 | 0.00 | 0.00 | 1009.2 | |
| 20260507210028 | -17 | 236 | 4.8 | 17.7 | 0.00 | 0.00 | 0.00 | 1008.7 | |
| 20260507204507 | -17 | 285 | 4.8 | 17.7 | 0.00 | 0.00 | 0.00 | 1009.0 | |
| 20260507203002 | -17 | 288 | 6.4 | 20.9 | 0.00 | 0.00 | 0.00 | 1008.9 | |
| 20260507201604 | -17 | 293 | 3.2 | 12.9 | 0.00 | 0.00 | 0.00 | 1008.8 | |
| 20260507200105 | -17 | 355 | 3.2 | 14.5 | 0.00 | 0.00 | 0.00 | 1009.0 | |
| 20260507194551 | -17 | 293 | 3.2 | 19.3 | 0.00 | 0.00 | 0.00 | 1009.3 | |
| 20260507193107 | -17 | 221 | 1.6 | 12.9 | 0.00 | 0.00 | 0.00 | 1009.3 | |
| 20260507191552 | -17 | 227 | 0.0 | 11.3 | 0.00 | 0.00 | 0.00 | 1009.2 | |
| 20260507190040 | -17 | 245 | 4.8 | 9.7 | 0.00 | 0.00 | 0.00 | 1009.4 | |
| 20260507184533 | -17 | 233 | 3.2 | 9.7 | 0.00 | 0.00 | 0.00 | 1009.6 | |
| 20260507183038 | -17 | 267 | 3.2 | 9.7 | 0.00 | 0.00 | 0.00 | 1009.6 | |
| 20260507181524 | -17 | 325 | 1.6 | 11.3 | 0.00 | 0.00 | 0.00 | 1009.7 | |
| 20260507180019 | -17 | 309 | 3.2 | 11.3 | 0.00 | 0.00 | 0.00 | 1009.9 | |
| 20260507174518 | -17 | 236 | 0.0 | 14.5 | 0.00 | 0.00 | 0.00 | 1009.9 | |
| 20260507173017 | -17 | 355 | 0.0 | 6.4 | 0.00 | 0.00 | 0.00 | 1010.1 | |
| 20260507171507 | -17 | 265 | 3.2 | 9.7 | 0.00 | 0.00 | 0.00 | 1010.3 | |
| 20260507170003 | -17 | 269 | 1.6 | 11.3 | 0.00 | 0.00 | 0.00 | 1010.5 | |
| 20260507164607 | -17 | 345 | 1.6 | 8.0 | 0.00 | 0.00 | 0.00 | 1010.5 | |
| 20260507163053 | -17 | 263 | 4.8 | 11.3 | 0.00 | 0.00 | 0.00 | 1010.6 | |
| 20260507161604 | -17 | 294 | 3.2 | 12.9 | 0.00 | 0.00 | 0.00 | 1010.8 | |
| 20260507154544 | -17 | 240 | 0.0 | 4.8 | 0.00 | 0.00 | 0.00 | 1011.1 | |
| 20260507153036 | -17 | 288 | 4.8 | 9.7 | 0.00 | 0.00 | 0.00 | 1011.3 | |
| 20260507151532 | -17 | 251 | 1.6 | 8.0 | 0.00 | 0.00 | 0.00 | 1011.4 | |
| 20260507150028 | -17 | 277 | 4.8 | 11.3 | 0.00 | 0.00 | 0.00 | 1011.7 | |
| 20260507144532 | -17 | 302 | 3.2 | 8.0 | 0.00 | 0.00 | 0.00 | 1011.9 | |
| 20260507143019 | -17 | 232 | 1.6 | 9.7 | 0.00 | 0.00 | 0.00 | 1012.0 | |
| 20260507141519 | -17 | 298 | 1.6 | 11.3 | 0.00 | 0.00 | 0.00 | 1012.2 | |
| 20260507140010 | -17 | 220 | 3.2 | 12.9 | 0.00 | 0.05 | 0.00 | 1012.3 | |
| 20260507134506 | -17 | 249 | 3.2 | 8.0 | 0.00 | 0.05 | 0.00 | 1012.4 | |
| 20260507133003 | -17 | 225 | 0.0 | 9.7 | 0.00 | 0.05 | 0.00 | 1012.4 | |
| 20260507131600 | -17 | 267 | 0.0 | 6.4 | 0.00 | 0.05 | 0.00 | 1012.6 | |
| 20260507130052 | -17 | 267 | 3.2 | 11.3 | 0.00 | 0.05 | 0.00 | 1012.7 | |
| 20260507124548 | -17 | 226 | 0.0 | 6.4 | 0.00 | 0.05 | 0.00 | 1012.7 | |
| 20260507123046 | -17 | 236 | 0.0 | 1.6 | 0.00 | 0.05 | 0.00 | 1012.7 | |
| 20260507121540 | -17 | 34 | 0.0 | 1.6 | 0.00 | 0.05 | 0.00 | 1012.7 | |
| 20260507120035 | -17 | 34 | 0.0 | 0.0 | 0.00 | 0.05 | 0.00 | 1012.7 | |
| 20260507114531 | -17 | 34 | 0.0 | 0.0 | 0.00 | 0.18 | 0.00 | 1012.8 | |
| 20260507113029 | -17 | 34 | 0.0 | 0.0 | 0.00 | 0.18 | 0.00 | 1012.6 | |
| 20260507111522 | -17 | 34 | 0.0 | 0.0 | 0.00 | 0.18 | 0.00 | 1012.6 | |
| 20260507110018 | -17 | 34 | 0.0 | 0.0 | 0.00 | 0.18 | 0.00 | 1012.5 | |
| 20260507104515 | -17 | 34 | 0.0 | 0.0 | 0.00 | 0.48 | 0.00 | 1012.3 | |
| 20260507103008 | -17 | 34 | 0.0 | 0.0 | 0.00 | 0.48 | 0.00 | 1012.2 | |
| 20260507101510 | -17 | 34 | 0.0 | 0.0 | 0.00 | 0.48 | 0.00 | 1012.2 | |
| 20260507100100 | -17 | 34 | 0.0 | 0.0 | 0.00 | 0.48 | 0.00 | 1012.2 | |
| 20260507094557 | -17 | 34 | 0.0 | 0.0 | 0.00 | 0.71 | 0.00 | 1012.2 | |
| 20260507093054 | -17 | 34 | 0.0 | 0.0 | 0.00 | 0.71 | 0.00 | 1012.1 | |
| 20260507091547 | -17 | 34 | 0.0 | 0.0 | 0.00 | 0.71 | 0.00 | 1012.4 | |
| 20260507090043 | -17 | 34 | 0.0 | 0.0 | 0.00 | 0.71 | 0.00 | 1012.2 | |
| 20260507084542 | -17 | 34 | 0.0 | 0.0 | 0.00 | 0.97 | 0.00 | 1012.2 | |
| 20260507083038 | -17 | 34 | 0.0 | 0.0 | 0.00 | 0.97 | 0.00 | 1012.3 | |
| 20260507081536 | -17 | 34 | 0.0 | 0.0 | 0.00 | 0.97 | 0.00 | 1012.2 | |
| 20260507080025 | -17 | 34 | 0.0 | 0.0 | 0.00 | 0.97 | 0.00 | 1012.3 | |
| 20260507074522 | -17 | 34 | 0.0 | 0.0 | 0.00 | 0.97 | 0.00 | 1012.3 | |
| 20260507073017 | -17 | 34 | 0.0 | 0.0 | 0.00 | 0.97 | 0.00 | 1012.3 | |
| 20260507071514 | -17 | 34 | 0.0 | 0.0 | 0.00 | 0.97 | 0.00 | 1012.4 | |
| 20260507070011 | -17 | 34 | 0.0 | 0.0 | 0.00 | 1.07 | 0.00 | 1012.5 | |
| 20260507064504 | -17 | 34 | 0.0 | 0.0 | 0.00 | 1.07 | 0.00 | 1012.4 | |
| 20260507063059 | -17 | 34 | 0.0 | 0.0 | 0.00 | 1.07 | 0.00 | 1012.4 | |
| 20260507061555 | -17 | 34 | 0.0 | 0.0 | 0.00 | 1.07 | 0.00 | 1012.5 | |
| 20260507060058 | -17 | 34 | 0.0 | 0.0 | 0.00 | 1.07 | 0.00 | 1012.5 | |
| 20260507054553 | -17 | 34 | 0.0 | 0.0 | 0.00 | 1.19 | 0.00 | 1012.6 | |
| 20260507053044 | -17 | 34 | 0.0 | 0.0 | 0.00 | 1.19 | 0.00 | 1013.0 | |
| 20260507051538 | -17 | 34 | 0.0 | 0.0 | 0.00 | 1.19 | 0.00 | 1013.2 | |
| 20260507050039 | -17 | 34 | 0.0 | 0.0 | 0.00 | 1.19 | 0.00 | 1013.2 | |
| 20260507044530 | -17 | 34 | 0.0 | 0.0 | 0.00 | 1.22 | 0.00 | 1013.2 | |
| 20260507043024 | -17 | 34 | 0.0 | 0.0 | 0.00 | 1.22 | 0.00 | 1013.1 | |
| 20260507041536 | -17 | 34 | 0.0 | 0.0 | 0.00 | 1.22 | 0.00 | 1013.1 | |
| 20260507040016 | -17 | 34 | 0.0 | 0.0 | 0.00 | 1.22 | 0.00 | 1013.0 | |
| 20260507034514 | -17 | 34 | 0.0 | 0.0 | 0.00 | 1.22 | 1.22 | 1013.0 | |
| 20260507033011 | -17 | 34 | 0.0 | 0.0 | 0.00 | 1.22 | 1.22 | 1012.8 | |
| 20260507031503 | -17 | 34 | 0.0 | 0.0 | 0.00 | 1.22 | 1.22 | 1012.7 | |
| 20260507030104 | -17 | 34 | 0.0 | 0.0 | 0.00 | 1.22 | 1.22 | 1012.8 | |
| 20260507024554 | -17 | 34 | 0.0 | 0.0 | 0.00 | 1.22 | 1.22 | 1012.4 | |
| 20260507023103 | -17 | 34 | 0.0 | 1.6 | 0.00 | 1.22 | 1.22 | 1012.5 | |
| 20260507021550 | -17 | 35 | 0.0 | 0.0 | 0.00 | 1.22 | 1.22 | 1012.4 | |
| 20260507020041 | -17 | 35 | 0.0 | 0.0 | 0.00 | 1.22 | 1.22 | 1012.1 | |
| 20260507014550 | -17 | 35 | 0.0 | 1.6 | 0.00 | 1.22 | 1.22 | 1011.9 | |
| 20260507013043 | -17 | 35 | 0.0 | 3.2 | 0.00 | 1.22 | 1.22 | 1011.7 | |
| 20260507011536 | -17 | 23 | 0.0 | 3.2 | 0.00 | 1.22 | 1.22 | 1011.7 | |
| 20260507010024 | -17 | 24 | 0.0 | 1.6 | 0.00 | 1.22 | 1.22 | 1011.9 | |
| 20260507004521 | -17 | 22 | 0.0 | 0.0 | 0.00 | 1.22 | 1.22 | 1012.2 | |
| 20260507003017 | -17 | 22 | 0.0 | 0.0 | 0.00 | 1.22 | 1.22 | 1012.0 | |
| 20260507001511 | -17 | 23 | 0.0 | 4.8 | 0.00 | 1.22 | 1.22 | 1011.8 | |
| 20260507000019 | -17 | 312 | 0.0 | 3.2 | 0.00 | 1.22 | 1.22 | 1011.9 | |
| 20260506234503 | -17 | 50 | 0.0 | 3.2 | 0.00 | 1.22 | 1.22 | 1011.8 | |
| 20260506233107 | -17 | 38 | 0.0 | 1.6 | 0.00 | 1.22 | 1.22 | 1011.5 |